Time,TemperatureF,DewpointF,PressureIn,WindDirection,WindDirectionDegrees,WindSpeedMPH,WindSpeedGustMPH,Humidity,HourlyPrecipIn,Conditions,Clouds,dailyrainin,SoftwareType,DateUTC
2013-02-16 00:00:00,25.9,19.0,30.16,NW,304,0.0,0.0,75,0.00,,CLR,0.00,VWS V14.01,2013-02-16 05:00:00,
2013-02-16 00:01:00,25.9,19.0,30.16,NW,304,0.0,0.0,75,0.00,,CLR,0.00,VWS V14.01,2013-02-16 05:01:00,
2013-02-16 00:02:00,25.7,18.8,30.16,NW,304,0.0,0.0,75,0.00,,CLR,0.00,VWS V14.01,2013-02-16 05:02:00,
2013-02-16 00:03:00,25.7,19.4,30.16,NW,304,0.0,0.0,76,0.00,,BKN025,0.00,VWS V14.01,2013-02-16 05:03:00,
2013-02-16 00:04:00,25.7,19.4,30.16,NW,304,0.0,0.0,76,0.00,,BKN025,0.00,VWS V14.01,2013-02-16 05:04:00,
2013-02-16 00:05:00,25.7,19.4,30.16,NW,304,0.0,0.0,76,0.00,,BKN025,0.00,VWS V14.01,2013-02-16 05:05:00,
2013-02-16 00:06:00,25.7,19.4,30.16,NW,304,0.0,0.0,76,0.00,,BKN025,0.00,VWS V14.01,2013-02-16 05:06:00,
2013-02-16 00:07:00,25.5,19.7,30.16,NW,304,0.0,0.0,78,0.00,,CLR,0.00,VWS V14.01,2013-02-16 05:07:00,
2013-02-16 00:08:00,25.5,19.7,30.16,NW,304,0.0,0.0,78,0.00,,BKN025,0.00,VWS V14.01,2013-02-16 05:08:00,
2013-02-16 00:09:00,25.5,19.7,30.16,NW,304,0.0,0.0,78,0.00,,BKN025,0.00,VWS V14.01,2013-02-16 05:09:00,
2013-02-16 00:10:00,25.3,19.0,30.16,NW,304,0.0,0.0,76,0.00,,BKN025,0.00,VWS V14.01,2013-02-16 05:10:00,
2013-02-16 00:11:00,25.3,19.0,30.16,NW,304,0.0,0.0,76,0.00,,BKN025,0.00,VWS V14.01,2013-02-16 05:11:00,
2013-02-16 00:12:00,25.3,19.0,30.16,NW,304,0.0,0.0,76,0.00,,CLR,0.00,VWS V14.01,2013-02-16 05:12:00,
2013-02-16 00:13:00,25.3,19.0,30.16,NW,304,0.0,0.0,76,0.00,,BKN025,0.00,VWS V14.01,2013-02-16 05:13:00,
2013-02-16 00:14:00,25.3,19.0,30.16,NW,304,0.0,0.0,76,0.00,,BKN025,0.00,VWS V14.01,2013-02-16 05:14:00,
2013-02-16 00:15:00,25.2,18.8,30.16,NW,304,0.0,0.0,76,0.00,,BKN025,0.00,VWS V14.01,2013-02-16 05:15:00,
2013-02-16 00:16:00,25.2,18.8,30.16,NW,304,0.0,0.0,76,0.00,,BKN025,0.00,VWS V14.01,2013-02-16 05:16:00,
2013-02-16 00:17:00,25.0,18.6,30.16,NW,304,0.0,0.0,76,0.00,,CLR,0.00,VWS V14.01,2013-02-16 05:17:00,
2013-02-16 00:18:00,25.0,18.6,30.16,NW,304,0.0,0.0,76,0.00,,BKN025,0.00,VWS V14.01,2013-02-16 05:18:00,
2013-02-16 00:19:00,25.0,18.6,30.16,NW,304,0.0,0.0,76,0.00,,BKN025,0.00,VWS V14.01,2013-02-16 05:19:00,
2013-02-16 00:20:00,25.0,18.6,30.16,NW,304,0.0,0.0,76,0.00,,BKN025,0.00,VWS V14.01,2013-02-16 05:20:00,
2013-02-16 00:21:00,25.0,18.6,30.16,NW,304,0.0,0.0,76,0.00,,BKN025,0.00,VWS V14.01,2013-02-16 05:21:00,
2013-02-16 00:22:00,24.8,18.5,30.16,NW,304,0.0,0.0,76,0.00,,CLR,0.00,VWS V14.01,2013-02-16 05:22:00,
2013-02-16 00:23:00,24.8,18.5,30.16,NW,304,0.0,0.0,76,0.00,,CLR,0.00,VWS V14.01,2013-02-16 05:23:00,
2013-02-16 00:24:00,24.8,18.5,30.16,NW,304,0.0,0.0,76,0.00,,BKN025,0.00,VWS V14.01,2013-02-16 05:24:00,
2013-02-16 00:25:00,24.8,18.5,30.16,NW,304,0.0,0.0,76,0.00,,BKN025,0.00,VWS V14.01,2013-02-16 05:25:00,
2013-02-16 00:26:00,24.8,18.5,30.16,NW,304,0.0,0.0,76,0.00,,BKN025,0.00,VWS V14.01,2013-02-16 05:26:00,
2013-02-16 00:27:00,24.8,18.5,30.16,NW,304,0.0,0.0,76,0.00,,BKN025,0.00,VWS V14.01,2013-02-16 05:27:00,
2013-02-16 00:28:00,24.6,18.3,30.16,NW,304,0.0,0.0,76,0.00,,CLR,0.00,VWS V14.01,2013-02-16 05:28:00,
2013-02-16 00:29:00,24.6,18.3,30.16,NW,304,0.0,0.0,76,0.00,,BKN025,0.00,VWS V14.01,2013-02-16 05:29:00,
2013-02-16 00:30:00,24.6,18.3,30.16,NW,304,0.0,0.0,76,0.00,,BKN025,0.00,VWS V14.01,2013-02-16 05:30:00,
2013-02-16 00:31:00,24.6,18.3,30.16,NW,304,0.0,0.0,76,0.00,,BKN025,0.00,VWS V14.01,2013-02-16 05:31:00,
2013-02-16 00:32:00,24.6,18.3,30.16,NW,304,0.0,0.0,76,0.00,,BKN025,0.00,VWS V14.01,2013-02-16 05:32:00,
2013-02-16 00:33:00,24.6,18.3,30.16,NW,304,0.0,0.0,76,0.00,,CLR,0.00,VWS V14.01,2013-02-16 05:33:00,
2013-02-16 00:34:00,24.6,18.3,30.16,NW,304,0.0,0.0,76,0.00,,BKN025,0.00,VWS V14.01,2013-02-16 05:34:00,
2013-02-16 00:35:00,24.6,18.3,30.16,NW,304,0.0,0.0,76,0.00,,BKN025,0.00,VWS V14.01,2013-02-16 05:35:00,
2013-02-16 00:36:00,24.6,18.3,30.16,NW,304,0.0,0.0,76,0.00,,BKN025,0.00,VWS V14.01,2013-02-16 05:36:00,
2013-02-16 00:37:00,24.4,18.1,30.16,NW,304,0.0,0.0,76,0.00,,BKN025,0.00,VWS V14.01,2013-02-16 05:37:00,
2013-02-16 00:38:00,24.4,18.1,30.16,NW,304,0.0,0.0,76,0.00,,FEW040,0.00,VWS V14.01,2013-02-16 05:38:00,
2013-02-16 00:39:00,24.4,18.1,30.16,NW,304,0.0,0.0,76,0.00,,BKN025,0.00,VWS V14.01,2013-02-16 05:39:00,
2013-02-16 00:40:00,24.4,18.1,30.16,NW,304,0.0,0.0,76,0.00,,BKN025,0.00,VWS V14.01,2013-02-16 05:40:00,
2013-02-16 00:41:00,24.4,18.1,30.16,NW,304,0.0,0.0,76,0.00,,BKN025,0.00,VWS V14.01,2013-02-16 05:41:00,
2013-02-16 00:42:00,24.4,18.1,30.16,NW,304,0.0,0.0,76,0.00,,BKN025,0.00,VWS V14.01,2013-02-16 05:42:00,
2013-02-16 00:43:00,24.6,18.8,30.16,NW,304,0.0,0.0,78,0.00,,FEW040,0.00,VWS V14.01,2013-02-16 05:43:00,
2013-02-16 00:44:00,24.4,18.6,30.16,NW,304,0.0,0.0,78,0.00,,BKN025,0.00,VWS V14.01,2013-02-16 05:44:00,
2013-02-16 00:45:00,24.6,18.8,30.16,NW,304,0.0,0.0,78,0.00,,BKN025,0.00,VWS V14.01,2013-02-16 05:45:00,
2013-02-16 00:46:00,24.6,18.8,30.16,NW,304,0.0,0.0,78,0.00,,BKN025,0.00,VWS V14.01,2013-02-16 05:46:00,
2013-02-16 00:47:00,24.6,19.3,30.16,NW,304,0.0,0.0,80,0.00,,BKN025,0.00,VWS V14.01,2013-02-16 05:47:00,
2013-02-16 00:48:00,24.6,19.3,30.16,NW,304,0.0,0.0,80,0.00,,FEW040,0.00,VWS V14.01,2013-02-16 05:48:00,
2013-02-16 00:49:00,24.6,19.3,30.16,NW,304,0.0,0.0,80,0.00,,BKN025,0.00,VWS V14.01,2013-02-16 05:49:00,
2013-02-16 00:50:00,24.6,19.3,30.16,NW,304,0.0,0.0,80,0.00,,BKN025,0.00,VWS V14.01,2013-02-16 05:50:00,
2013-02-16 00:51:00,24.6,19.3,30.16,NW,304,0.0,0.0,80,0.00,,BKN025,0.00,VWS V14.01,2013-02-16 05:51:00,
2013-02-16 00:52:00,24.8,19.5,30.16,NW,304,0.0,0.0,80,0.00,,BKN025,0.00,VWS V14.01,2013-02-16 05:52:00,
2013-02-16 00:53:00,24.8,19.5,30.16,NW,304,0.0,0.0,80,0.00,,FEW040,0.00,VWS V14.01,2013-02-16 05:53:00,
2013-02-16 00:54:00,24.8,19.5,30.16,NW,304,0.0,0.0,80,0.00,,BKN025,0.00,VWS V14.01,2013-02-16 05:54:00,
2013-02-16 00:55:00,24.8,19.5,30.16,NW,304,0.0,0.0,80,0.00,,BKN025,0.00,VWS V14.01,2013-02-16 05:55:00,
2013-02-16 00:56:00,24.8,19.5,30.16,NW,304,0.0,0.0,80,0.00,,BKN025,0.00,VWS V14.01,2013-02-16 05:56:00,
2013-02-16 00:57:00,24.8,19.5,30.16,NW,304,0.0,0.0,80,0.00,,BKN025,0.00,VWS V14.01,2013-02-16 05:57:00,
2013-02-16 00:58:00,24.8,19.5,30.16,NW,304,0.0,0.0,80,0.00,,BKN025,0.00,VWS V14.01,2013-02-16 05:58:00,
2013-02-16 00:59:00,24.8,19.5,30.16,NW,304,0.0,0.0,80,0.00,,FEW040,0.00,VWS V14.01,2013-02-16 05:59:00,
2013-02-16 01:00:00,24.8,19.5,30.16,NW,304,0.0,0.0,80,0.00,,BKN025,0.00,VWS V14.01,2013-02-16 06:00:00,
2013-02-16 01:01:00,24.8,19.5,30.16,NW,304,0.0,0.0,80,0.00,,BKN025,0.00,VWS V14.01,2013-02-16 06:01:00,
2013-02-16 01:02:00,24.8,19.5,30.16,NW,304,0.0,0.0,80,0.00,,BKN025,0.00,VWS V14.01,2013-02-16 06:02:00,
2013-02-16 01:03:00,24.8,19.5,30.16,NW,304,0.0,0.0,80,0.00,,BKN025,0.00,VWS V14.01,2013-02-16 06:03:00,
2013-02-16 01:04:00,24.8,19.5,30.16,NW,304,0.0,0.0,80,0.00,,FEW040,0.00,VWS V14.01,2013-02-16 06:04:00,
2013-02-16 01:05:00,24.8,19.5,30.16,NW,304,0.0,0.0,80,0.00,,BKN025,0.00,VWS V14.01,2013-02-16 06:05:00,
2013-02-16 01:06:00,24.8,19.5,30.16,NW,304,0.0,0.0,80,0.00,,BKN025,0.00,VWS V14.01,2013-02-16 06:06:00,
2013-02-16 01:07:00,24.6,19.3,30.16,NW,304,0.0,0.0,80,0.00,,BKN025,0.00,VWS V14.01,2013-02-16 06:07:00,
2013-02-16 01:08:00,24.6,19.3,30.16,NW,304,0.0,0.0,80,0.00,,BKN025,0.00,VWS V14.01,2013-02-16 06:08:00,
2013-02-16 01:09:00,24.6,19.3,30.16,WNW,303,0.0,0.0,80,0.00,,FEW040,0.00,VWS V14.01,2013-02-16 06:09:00,
2013-02-16 01:10:00,24.6,19.3,30.16,WNW,303,0.0,0.0,80,0.00,,BKN025,0.00,VWS V14.01,2013-02-16 06:10:00,
2013-02-16 01:11:00,24.6,19.3,30.16,NW,304,0.0,0.0,80,0.00,,BKN025,0.00,VWS V14.01,2013-02-16 06:11:00,
2013-02-16 01:12:00,24.6,19.3,30.16,NW,304,0.0,0.0,80,0.00,,BKN025,0.00,VWS V14.01,2013-02-16 06:12:00,
2013-02-16 01:13:00,24.6,19.3,30.16,NW,304,0.0,0.0,80,0.00,,BKN025,0.00,VWS V14.01,2013-02-16 06:13:00,
2013-02-16 01:14:00,24.6,19.3,30.16,NW,304,0.0,0.0,80,0.00,,FEW040,0.00,VWS V14.01,2013-02-16 06:14:00,
2013-02-16 01:15:00,24.6,19.3,30.16,NW,304,0.0,0.0,80,0.00,,BKN025,0.00,VWS V14.01,2013-02-16 06:15:00,
2013-02-16 01:16:00,24.6,19.3,30.16,NW,304,0.0,0.0,80,0.00,,BKN025,0.00,VWS V14.01,2013-02-16 06:16:00,
2013-02-16 01:17:00,24.6,19.3,30.16,NW,304,0.0,0.0,80,0.00,,BKN025,0.00,VWS V14.01,2013-02-16 06:17:00,
2013-02-16 01:18:00,24.6,19.3,30.16,NW,304,0.0,0.0,80,0.00,,BKN025,0.00,VWS V14.01,2013-02-16 06:18:00,
2013-02-16 01:19:00,24.6,19.3,30.16,NW,304,0.0,0.0,80,0.00,,FEW040,0.00,VWS V14.01,2013-02-16 06:19:00,
2013-02-16 01:20:00,24.6,19.3,30.16,NW,304,0.0,0.0,80,0.00,,BKN025,0.00,VWS V14.01,2013-02-16 06:20:00,
2013-02-16 01:21:00,24.6,19.3,30.16,NW,304,0.0,0.0,80,0.00,,BKN025,0.00,VWS V14.01,2013-02-16 06:21:00,
2013-02-16 01:22:00,24.6,19.3,30.16,NW,304,0.0,0.0,80,0.00,,BKN025,0.00,VWS V14.01,2013-02-16 06:22:00,
2013-02-16 01:23:00,24.6,19.3,30.16,NW,304,0.0,0.0,80,0.00,,BKN025,0.00,VWS V14.01,2013-02-16 06:23:00,
2013-02-16 01:24:00,24.4,19.1,30.16,NW,304,0.0,0.0,80,0.00,,FEW040,0.00,VWS V14.01,2013-02-16 06:24:00,
2013-02-16 01:25:00,24.4,19.1,30.16,NW,304,0.0,0.0,80,0.00,,BKN025,0.00,VWS V14.01,2013-02-16 06:25:00,
2013-02-16 01:26:00,24.4,19.1,30.16,NW,304,0.0,0.0,80,0.00,,BKN025,0.00,VWS V14.01,2013-02-16 06:26:00,
2013-02-16 01:27:00,24.4,19.1,30.13,NW,304,0.0,0.0,80,0.00,,BKN025,0.00,VWS V14.01,2013-02-16 06:27:00,
2013-02-16 01:28:00,24.4,19.1,30.13,NW,304,0.0,0.0,80,0.00,,BKN025,0.00,VWS V14.01,2013-02-16 06:28:00,
2013-02-16 01:29:00,24.4,19.1,30.13,NW,304,0.0,0.0,80,0.00,,FEW040,0.00,VWS V14.01,2013-02-16 06:29:00,
2013-02-16 01:30:00,24.4,19.1,30.13,NW,304,0.0,0.0,80,0.00,,BKN025,0.00,VWS V14.01,2013-02-16 06:30:00,
2013-02-16 01:31:00,24.4,19.1,30.13,NW,304,0.0,0.0,80,0.00,,BKN025,0.00,VWS V14.01,2013-02-16 06:31:00,
2013-02-16 01:32:00,24.3,19.0,30.13,NW,304,0.0,0.0,80,0.00,,BKN025,0.00,VWS V14.01,2013-02-16 06:32:00,
2013-02-16 01:33:00,24.3,19.0,30.13,NW,304,0.0,0.0,80,0.00,,BKN025,0.00,VWS V14.01,2013-02-16 06:33:00,
2013-02-16 01:34:00,24.3,19.0,30.13,NW,304,0.0,0.0,80,0.00,,FEW040,0.00,VWS V14.01,2013-02-16 06:34:00,
2013-02-16 01:35:00,24.3,19.0,30.13,NW,304,0.0,0.0,80,0.00,,BKN025,0.00,VWS V14.01,2013-02-16 06:35:00,
2013-02-16 01:36:00,24.3,19.0,30.13,NW,304,0.0,0.0,80,0.00,,BKN025,0.00,VWS V14.01,2013-02-16 06:36:00,
2013-02-16 01:37:00,24.1,19.3,30.13,NW,304,0.0,0.0,82,0.00,,BKN025,0.00,VWS V14.01,2013-02-16 06:37:00,
2013-02-16 01:38:00,24.1,19.3,30.13,NW,304,0.0,0.0,82,0.00,,BKN025,0.00,VWS V14.01,2013-02-16 06:38:00,
2013-02-16 01:39:00,24.1,19.3,30.13,NW,304,0.0,0.0,82,0.00,,SCT050,0.00,VWS V14.01,2013-02-16 06:39:00,
2013-02-16 01:40:00,24.1,19.3,30.13,NW,304,0.0,0.0,82,0.00,,SCT050,0.00,VWS V14.01,2013-02-16 06:40:00,
2013-02-16 01:44:00,24.1,19.3,30.13,NW,304,0.0,0.0,82,0.00,,SCT050,0.00,VWS V14.01,2013-02-16 06:44:00,
2013-02-16 01:49:00,24.1,19.3,30.13,NW,304,0.0,0.0,82,0.00,,SCT050,0.00,VWS V14.01,2013-02-16 06:49:00,
2013-02-16 07:17:00,21.7,20.2,30.10,NW,325,5.2,6.6,94,0.00,,BKN025,0.00,VWS V14.01,2013-02-16 12:17:00,
2013-02-16 07:18:00,21.7,20.2,30.10,NW,325,5.2,6.6,94,0.00,,OVC048,0.00,VWS V14.01,2013-02-16 12:18:00,
2013-02-16 07:19:00,21.7,20.2,30.10,NW,315,5.9,7.5,94,0.00,,OVC048,0.00,VWS V14.01,2013-02-16 12:19:00,
2013-02-16 07:20:00,21.7,20.2,30.10,WNW,302,5.2,11.3,94,0.00,,OVC048,0.00,VWS V14.01,2013-02-16 12:20:00,
2013-02-16 07:21:00,21.7,20.2,30.10,NW,311,9.6,12.2,94,0.00,,OVC048,0.00,VWS V14.01,2013-02-16 12:21:00,
2013-02-16 07:22:00,21.7,20.2,30.10,WNW,295,5.9,7.5,94,0.00,,BKN025,0.00,VWS V14.01,2013-02-16 12:22:00,
2013-02-16 07:23:00,21.7,20.2,30.10,NW,319,5.2,6.6,94,0.00,,OVC048,0.00,VWS V14.01,2013-02-16 12:23:00,
2013-02-16 07:24:00,21.7,20.2,30.10,NW,307,4.4,8.5,94,0.00,,OVC048,0.00,VWS V14.01,2013-02-16 12:24:00,
2013-02-16 07:25:00,21.7,20.2,30.10,NW,315,5.2,6.6,94,0.00,,OVC048,0.00,VWS V14.01,2013-02-16 12:25:00,
2013-02-16 07:26:00,21.7,20.2,30.10,NW,322,8.1,10.3,94,0.00,,OVC048,0.00,VWS V14.01,2013-02-16 12:26:00,
2013-02-16 07:27:00,21.7,20.2,30.10,NW,318,4.4,7.5,94,0.00,,BKN025,0.00,VWS V14.01,2013-02-16 12:27:00,
2013-02-16 07:28:00,21.7,20.2,30.10,NW,318,5.9,11.3,94,0.00,,OVC048,0.00,VWS V14.01,2013-02-16 12:28:00,
2013-02-16 07:29:00,21.7,20.2,30.10,WNW,300,8.1,12.2,94,0.00,,OVC048,0.00,VWS V14.01,2013-02-16 12:29:00,
2013-02-16 07:30:00,21.7,20.2,30.10,NW,306,11.8,15.0,94,0.00,,OVC048,0.00,VWS V14.01,2013-02-16 12:30:00,
2013-02-16 07:31:00,21.7,20.2,30.10,WNW,294,9.6,15.0,94,0.00,,OVC048,0.00,VWS V14.01,2013-02-16 12:31:00,
2013-02-16 07:32:00,21.7,20.2,30.10,NNW,333,5.9,10.3,94,0.00,,BKN025,0.00,VWS V14.01,2013-02-16 12:32:00,
2013-02-16 07:33:00,21.7,20.2,30.10,NNW,327,8.1,10.3,94,0.00,,OVC048,0.00,VWS V14.01,2013-02-16 12:33:00,
2013-02-16 07:34:00,21.7,20.2,30.10,WNW,293,8.1,12.2,94,0.00,,OVC048,0.00,VWS V14.01,2013-02-16 12:34:00,
2013-02-16 07:35:00,21.7,20.2,30.10,NNW,331,6.6,11.3,94,0.00,,OVC048,0.00,VWS V14.01,2013-02-16 12:35:00,
2013-02-16 07:36:00,21.7,19.7,30.10,NNW,335,12.5,16.0,92,0.00,,OVC048,0.00,VWS V14.01,2013-02-16 12:36:00,
2013-02-16 07:37:00,21.7,19.7,30.10,NW,325,8.1,10.3,92,0.00,,BKN025,0.00,VWS V14.01,2013-02-16 12:37:00,
2013-02-16 07:38:00,21.7,19.7,30.10,NW,323,6.6,11.3,92,0.00,,OVC048,0.00,VWS V14.01,2013-02-16 12:38:00,
2013-02-16 07:39:00,21.7,19.7,30.10,WNW,283,5.2,10.3,92,0.00,,OVC048,0.00,VWS V14.01,2013-02-16 12:39:00,
2013-02-16 07:40:00,21.6,19.5,30.10,NW,326,8.9,12.2,92,0.00,,OVC048,0.00,VWS V14.01,2013-02-16 12:40:00,
2013-02-16 07:41:00,21.6,19.5,30.10,NW,314,5.2,11.3,92,0.00,,OVC048,0.00,VWS V14.01,2013-02-16 12:41:00,
2013-02-16 07:42:00,21.6,19.5,30.10,NW,310,14.4,18.3,92,0.00,,BKN025,0.00,VWS V14.01,2013-02-16 12:42:00,
2013-02-16 07:43:00,21.6,19.5,30.10,WNW,301,14.4,18.3,92,0.00,,OVC048,0.00,VWS V14.01,2013-02-16 12:43:00,
2013-02-16 07:44:00,21.7,19.7,30.10,WNW,289,10.3,18.3,92,0.00,,OVC048,0.00,VWS V14.01,2013-02-16 12:44:00,
2013-02-16 07:45:00,21.7,19.7,30.10,NW,314,6.6,13.2,92,0.00,,OVC048,0.00,VWS V14.01,2013-02-16 12:45:00,
2013-02-16 07:46:00,21.7,19.7,30.10,WNW,300,11.1,14.1,92,0.00,,OVC048,0.00,VWS V14.01,2013-02-16 12:46:00,
2013-02-16 07:47:00,21.7,19.7,30.10,NW,311,5.9,8.5,92,0.00,,BKN025,0.00,VWS V14.01,2013-02-16 12:47:00,
2013-02-16 07:48:00,21.7,19.7,30.10,NNW,329,6.6,12.2,92,0.00,,OVC048,0.00,VWS V14.01,2013-02-16 12:48:00,
2013-02-16 07:49:00,21.7,19.7,30.10,NW,316,8.1,10.3,92,0.00,,OVC048,0.00,VWS V14.01,2013-02-16 12:49:00,
2013-02-16 07:50:00,21.7,19.7,30.10,WNW,294,10.3,13.2,92,0.00,,OVC048,0.00,VWS V14.01,2013-02-16 12:50:00,
2013-02-16 07:51:00,21.7,19.7,30.10,NW,305,8.1,13.2,92,0.00,,OVC048,0.00,VWS V14.01,2013-02-16 12:51:00,
2013-02-16 07:52:00,21.7,19.7,30.10,NW,324,9.6,12.2,92,0.00,,,0.00,VWS V14.01,2013-02-16 12:52:00,
2013-02-16 07:53:00,21.7,19.7,30.10,NW,319,5.9,8.5,92,0.00,,OVC048,0.00,VWS V14.01,2013-02-16 12:53:00,
2013-02-16 07:54:00,21.7,19.7,30.10,WNW,300,8.1,12.2,92,0.00,,OVC048,0.00,VWS V14.01,2013-02-16 12:54:00,
2013-02-16 07:55:00,21.7,19.7,30.10,WNW,292,9.6,12.2,92,0.00,,OVC048,0.00,VWS V14.01,2013-02-16 12:55:00,
2013-02-16 07:56:00,21.7,19.7,30.10,NNW,329,7.4,13.2,92,0.00,,OVC048,0.00,VWS V14.01,2013-02-16 12:56:00,
2013-02-16 07:57:00,21.7,19.7,30.10,NW,323,6.6,11.3,92,0.00,,,0.00,VWS V14.01,2013-02-16 12:57:00,
2013-02-16 07:58:00,21.7,19.7,30.10,WNW,291,8.9,15.0,92,0.00,,OVC048,0.00,VWS V14.01,2013-02-16 12:58:00,
2013-02-16 07:59:00,21.7,19.7,30.10,WNW,300,8.1,11.3,92,0.00,,OVC048,0.00,VWS V14.01,2013-02-16 12:59:00,
2013-02-16 08:00:00,21.7,19.7,30.10,NW,325,10.3,13.2,92,0.00,,OVC048,0.00,VWS V14.01,2013-02-16 13:00:00,
2013-02-16 08:01:00,21.7,19.7,30.10,WNW,292,10.3,13.2,92,0.00,,OVC048,0.00,VWS V14.01,2013-02-16 13:01:00,
2013-02-16 08:02:00,21.7,19.7,30.10,WNW,302,5.2,12.2,92,0.00,,,0.00,VWS V14.01,2013-02-16 13:02:00,
2013-02-16 08:03:00,21.7,19.7,30.10,NNW,335,8.9,13.2,92,0.00,,OVC048,0.00,VWS V14.01,2013-02-16 13:03:00,
2013-02-16 08:04:00,21.7,19.7,30.10,NW,315,5.9,12.2,92,0.00,,OVC048,0.00,VWS V14.01,2013-02-16 13:04:00,
2013-02-16 08:05:00,21.7,19.7,30.10,NW,314,6.6,8.5,92,0.00,,OVC048,0.00,VWS V14.01,2013-02-16 13:05:00,
2013-02-16 08:06:00,21.7,19.7,30.10,WNW,287,9.6,12.2,92,0.00,,OVC048,0.00,VWS V14.01,2013-02-16 13:06:00,
2013-02-16 08:07:00,21.7,19.7,30.10,WNW,289,9.6,12.2,92,0.00,,,0.00,VWS V14.01,2013-02-16 13:07:00,
2013-02-16 08:08:00,21.7,19.7,30.10,NW,308,6.6,13.2,92,0.00,,OVC048,0.00,VWS V14.01,2013-02-16 13:08:00,
2013-02-16 08:09:00,21.7,19.7,30.10,WNW,289,9.6,12.2,92,0.00,,OVC048,0.00,VWS V14.01,2013-02-16 13:09:00,
2013-02-16 08:10:00,21.7,19.7,30.10,WNW,296,6.6,16.9,92,0.00,,OVC048,0.00,VWS V14.01,2013-02-16 13:10:00,
2013-02-16 08:11:00,21.7,19.7,30.10,NNW,328,5.2,8.5,92,0.00,,OVC048,0.00,VWS V14.01,2013-02-16 13:11:00,
2013-02-16 08:12:00,21.7,19.7,30.13,NW,322,6.6,10.3,92,0.00,,,0.00,VWS V14.01,2013-02-16 13:12:00,
2013-02-16 08:13:00,21.7,19.7,30.13,NW,312,6.6,12.2,92,0.00,,OVC048,0.00,VWS V14.01,2013-02-16 13:13:00,
2013-02-16 08:14:00,21.7,19.7,30.13,NW,304,5.9,10.3,92,0.00,,OVC048,0.00,VWS V14.01,2013-02-16 13:14:00,
2013-02-16 08:15:00,21.7,19.7,30.13,NW,325,5.2,8.5,92,0.00,,OVC048,0.00,VWS V14.01,2013-02-16 13:15:00,
2013-02-16 08:16:00,21.7,19.7,30.13,NW,304,6.6,8.5,92,0.00,,OVC048,0.00,VWS V14.01,2013-02-16 13:16:00,
2013-02-16 08:17:00,21.7,19.7,30.13,NW,305,5.2,11.3,92,0.00,,OVC048,0.00,VWS V14.01,2013-02-16 13:17:00,
2013-02-16 08:18:00,21.7,19.7,30.13,WNW,297,7.4,11.3,92,0.00,,,0.00,VWS V14.01,2013-02-16 13:18:00,
2013-02-16 08:19:00,21.7,19.7,30.13,NW,308,6.6,11.3,92,0.00,,OVC048,0.00,VWS V14.01,2013-02-16 13:19:00,
2013-02-16 08:20:00,21.7,19.7,30.13,WNW,299,6.6,10.3,92,0.00,,OVC048,0.00,VWS V14.01,2013-02-16 13:20:00,
2013-02-16 08:21:00,21.9,19.9,30.13,NW,310,6.6,16.9,92,0.00,,OVC048,0.00,VWS V14.01,2013-02-16 13:21:00,
2013-02-16 08:22:00,21.9,19.9,30.13,NW,319,5.2,8.5,92,0.00,,OVC048,0.00,VWS V14.01,2013-02-16 13:22:00,
2013-02-16 08:23:00,21.9,19.9,30.13,NW,318,6.6,8.5,92,0.00,,,0.00,VWS V14.01,2013-02-16 13:23:00,
2013-02-16 08:24:00,21.9,19.9,30.13,NW,318,6.6,8.5,92,0.00,,OVC048,0.00,VWS V14.01,2013-02-16 13:24:00,
2013-02-16 08:25:00,21.9,19.9,30.13,WNW,303,5.2,8.5,92,0.00,,OVC048,0.00,VWS V14.01,2013-02-16 13:25:00,
2013-02-16 08:26:00,21.9,19.9,30.13,WNW,295,8.9,12.2,92,0.00,,OVC048,0.00,VWS V14.01,2013-02-16 13:26:00,
2013-02-16 08:27:00,21.9,19.9,30.13,NW,304,6.6,16.0,92,0.00,,OVC048,0.00,VWS V14.01,2013-02-16 13:27:00,
2013-02-16 08:28:00,21.9,19.9,30.13,WNW,301,4.4,8.5,92,0.00,,,0.00,VWS V14.01,2013-02-16 13:28:00,
2013-02-16 08:29:00,21.9,19.9,30.13,WNW,301,4.4,8.5,92,0.00,,OVC048,0.00,VWS V14.01,2013-02-16 13:29:00,
2013-02-16 08:30:00,21.9,19.9,30.13,NW,314,5.2,8.5,92,0.00,,OVC048,0.00,VWS V14.01,2013-02-16 13:30:00,
2013-02-16 08:31:00,22.1,20.1,30.13,NNW,329,5.9,11.3,92,0.00,,OVC048,0.00,VWS V14.01,2013-02-16 13:31:00,
2013-02-16 08:32:00,22.1,20.1,30.13,NW,324,8.1,10.3,92,0.00,,OVC048,0.00,VWS V14.01,2013-02-16 13:32:00,
2013-02-16 08:33:00,22.1,19.6,30.13,WNW,297,9.6,12.2,90,0.00,,,0.00,VWS V14.01,2013-02-16 13:33:00,
2013-02-16 08:34:00,22.1,19.6,30.13,WNW,297,9.6,12.2,90,0.00,,OVC048,0.00,VWS V14.01,2013-02-16 13:34:00,
2013-02-16 08:35:00,22.1,19.6,30.13,WNW,292,10.3,13.2,90,0.00,,OVC048,0.00,VWS V14.01,2013-02-16 13:35:00,
2013-02-16 08:36:00,22.3,19.8,30.13,West,276,8.9,13.2,90,0.00,,OVC048,0.00,VWS V14.01,2013-02-16 13:36:00,
2013-02-16 08:37:00,22.3,19.8,30.13,NW,325,6.6,12.2,90,0.00,,OVC048,0.00,VWS V14.01,2013-02-16 13:37:00,
2013-02-16 08:38:00,22.5,20.0,30.13,NW,305,12.5,16.0,90,0.00,,,0.00,VWS V14.01,2013-02-16 13:38:00,
2013-02-16 08:39:00,22.5,20.0,30.13,NW,305,12.5,16.0,90,0.00,,OVC048,0.00,VWS V14.01,2013-02-16 13:39:00,
2013-02-16 08:40:00,22.5,20.0,30.13,NW,313,10.3,16.9,90,0.00,,OVC048,0.00,VWS V14.01,2013-02-16 13:40:00,
2013-02-16 08:41:00,22.5,20.0,30.13,NW,322,6.6,13.2,90,0.00,,OVC048,0.00,VWS V14.01,2013-02-16 13:41:00,
2013-02-16 08:42:00,22.5,20.0,30.13,NW,304,12.5,16.0,90,0.00,,OVC048,0.00,VWS V14.01,2013-02-16 13:42:00,
2013-02-16 08:43:00,22.6,19.7,30.13,NW,315,9.6,16.0,88,0.00,,,0.00,VWS V14.01,2013-02-16 13:43:00,
2013-02-16 08:44:00,22.6,19.7,30.13,West,263,8.9,16.0,88,0.00,,OVC048,0.00,VWS V14.01,2013-02-16 13:44:00,
2013-02-16 08:45:00,22.6,19.7,30.13,West,269,13.7,23.0,88,0.00,,OVC048,0.00,VWS V14.01,2013-02-16 13:45:00,
2013-02-16 08:46:00,22.6,19.3,30.13,West,274,9.6,17.4,87,0.00,,OVC048,0.00,VWS V14.01,2013-02-16 13:46:00,
2013-02-16 08:47:00,22.6,19.3,30.13,NNW,335,6.6,17.4,87,0.00,,OVC048,0.00,VWS V14.01,2013-02-16 13:47:00,
2013-02-16 08:48:00,22.8,19.9,30.13,NW,306,9.6,16.9,88,0.00,,,0.00,VWS V14.01,2013-02-16 13:48:00,
2013-02-16 08:49:00,22.8,19.9,30.13,NW,306,9.6,16.9,88,0.00,,OVC048,0.00,VWS V14.01,2013-02-16 13:49:00,
2013-02-16 08:50:00,22.8,19.5,30.13,WNW,293,13.7,17.4,87,0.00,,OVC048,0.00,VWS V14.01,2013-02-16 13:50:00,
2013-02-16 08:51:00,22.8,19.5,30.13,NNW,332,8.9,23.0,87,0.00,,OVC048,0.00,VWS V14.01,2013-02-16 13:51:00,
2013-02-16 08:52:00,22.8,19.5,30.13,WNW,300,12.5,16.0,87,0.00,,OVC048,0.00,VWS V14.01,2013-02-16 13:52:00,
2013-02-16 08:53:00,22.8,19.0,30.13,NNW,341,8.9,21.1,85,0.00,,,0.00,VWS V14.01,2013-02-16 13:53:00,
2013-02-16 08:54:00,22.8,19.0,30.13,NNW,341,8.9,21.1,85,0.00,,OVC048,0.00,VWS V14.01,2013-02-16 13:54:00,
2013-02-16 08:55:00,22.8,18.5,30.13,WNW,303,9.6,14.1,83,0.00,,OVC048,0.00,VWS V14.01,2013-02-16 13:55:00,
2013-02-16 08:56:00,22.8,19.0,30.13,NNW,340,8.9,16.0,85,0.00,,OVC048,0.00,VWS V14.01,2013-02-16 13:56:00,
2013-02-16 08:57:00,22.8,19.0,30.13,NW,325,8.9,13.2,85,0.00,,OVC048,0.00,VWS V14.01,2013-02-16 13:57:00,
2013-02-16 08:58:00,22.8,19.0,30.13,NW,324,14.4,18.3,85,0.00,,,0.00,VWS V14.01,2013-02-16 13:58:00,
2013-02-16 08:59:00,23.0,19.2,30.13,NW,321,12.5,16.0,85,0.00,,OVC048,0.00,VWS V14.01,2013-02-16 13:59:00,
2013-02-16 09:00:00,23.0,19.2,30.13,North,353,9.6,18.3,85,0.00,,OVC048,0.00,VWS V14.01,2013-02-16 14:00:00,
2013-02-16 09:01:00,23.0,19.6,30.13,NW,310,12.5,21.1,87,0.00,,OVC048,0.00,VWS V14.01,2013-02-16 14:01:00,
2013-02-16 09:02:00,23.0,19.2,30.13,NW,317,13.7,17.4,85,0.00,,OVC048,0.00,VWS V14.01,2013-02-16 14:02:00,
2013-02-16 09:03:00,23.0,18.7,30.13,NW,322,10.3,14.1,83,0.00,,,0.00,VWS V14.01,2013-02-16 14:03:00,
2013-02-16 09:04:00,23.0,19.2,30.13,NW,326,11.1,18.3,85,0.00,,OVC048,0.00,VWS V14.01,2013-02-16 14:04:00,
2013-02-16 09:05:00,22.8,18.5,30.13,NW,319,10.3,17.4,83,0.00,,OVC048,0.00,VWS V14.01,2013-02-16 14:05:00,
2013-02-16 09:06:00,23.0,18.7,30.13,North,5,8.9,16.9,83,0.00,,OVC048,0.00,VWS V14.01,2013-02-16 14:06:00,
2013-02-16 09:07:00,23.0,19.2,30.13,NW,305,14.4,18.3,85,0.00,,OVC048,0.00,VWS V14.01,2013-02-16 14:07:00,
2013-02-16 09:08:00,23.0,19.2,30.13,NNW,332,10.3,16.9,85,0.00,,,0.00,VWS V14.01,2013-02-16 14:08:00,
2013-02-16 09:09:00,23.0,18.7,30.13,NNW,343,5.9,16.9,83,0.00,,OVC048,0.00,VWS V14.01,2013-02-16 14:09:00,
2013-02-16 09:10:00,23.0,18.7,30.13,NW,326,10.3,16.9,83,0.00,,OVC048,0.00,VWS V14.01,2013-02-16 14:10:00,
2013-02-16 09:11:00,23.0,19.2,30.13,WNW,287,6.6,13.2,85,0.00,,OVC048,0.00,VWS V14.01,2013-02-16 14:11:00,
2013-02-16 09:12:00,23.2,19.4,30.13,WNW,300,8.9,11.3,85,0.00,,OVC048,0.00,VWS V14.01,2013-02-16 14:12:00,
2013-02-16 09:13:00,23.4,19.5,30.13,NW,324,14.4,18.3,85,0.00,,,0.00,VWS V14.01,2013-02-16 14:13:00,
2013-02-16 09:14:00,23.4,19.5,30.13,WNW,282,8.9,11.3,85,0.00,,OVC048,0.00,VWS V14.01,2013-02-16 14:14:00,
2013-02-16 09:15:00,23.4,19.5,30.13,NW,326,14.4,18.3,85,0.00,,OVC048,0.00,VWS V14.01,2013-02-16 14:15:00,
2013-02-16 09:16:00,23.4,18.6,30.13,WNW,297,10.3,18.3,82,0.00,,OVC048,0.00,VWS V14.01,2013-02-16 14:16:00,
2013-02-16 09:17:00,23.4,18.6,30.13,NW,307,13.3,21.1,82,0.00,,OVC048,0.00,VWS V14.01,2013-02-16 14:17:00,
2013-02-16 09:18:00,23.5,19.2,30.13,West,280,8.9,11.3,83,0.00,,,0.00,VWS V14.01,2013-02-16 14:18:00,
2013-02-16 09:19:00,23.4,18.6,30.13,WNW,295,8.9,13.2,82,0.00,,OVC048,0.00,VWS V14.01,2013-02-16 14:19:00,
2013-02-16 09:20:00,23.5,19.2,30.13,NW,310,13.3,16.9,83,0.00,,OVC048,0.00,VWS V14.01,2013-02-16 14:20:00,
2013-02-16 09:21:00,23.5,18.8,30.13,West,281,10.3,16.9,82,0.00,,OVC048,0.00,VWS V14.01,2013-02-16 14:21:00,
2013-02-16 09:22:00,23.5,18.8,30.13,WNW,293,13.7,17.4,82,0.00,,OVC048,0.00,VWS V14.01,2013-02-16 14:22:00,
2013-02-16 09:23:00,23.5,18.8,30.13,NW,313,15.1,23.0,82,0.00,,OVC048,0.00,VWS V14.01,2013-02-16 14:23:00,
2013-02-16 09:24:00,23.5,18.3,30.13,West,281,21.0,26.8,80,0.00,,,0.00,VWS V14.01,2013-02-16 14:24:00,
2013-02-16 09:25:00,23.5,18.3,30.13,West,280,12.5,26.8,80,0.00,,OVC048,0.00,VWS V14.01,2013-02-16 14:25:00,
2013-02-16 09:26:00,23.5,18.3,30.13,WNW,293,16.6,21.1,80,0.00,,OVC048,0.00,VWS V14.01,2013-02-16 14:26:00,
2013-02-16 09:27:00,23.4,18.1,30.13,WNW,288,17.3,27.7,80,0.00,,OVC048,0.00,VWS V14.01,2013-02-16 14:27:00,
2013-02-16 09:28:00,23.4,18.1,30.13,NNW,337,22.5,28.7,80,0.00,,OVC048,0.00,VWS V14.01,2013-02-16 14:28:00,
2013-02-16 09:29:00,23.4,18.1,30.13,NW,315,14.4,31.5,80,0.00,,,0.00,VWS V14.01,2013-02-16 14:29:00,
2013-02-16 09:30:00,23.4,18.1,30.13,West,276,13.7,31.5,80,0.00,,OVC048,0.00,VWS V14.01,2013-02-16 14:30:00,
2013-02-16 09:31:00,23.4,18.1,30.13,NW,325,14.4,18.3,80,0.00,,OVC048,0.00,VWS V14.01,2013-02-16 14:31:00,
2013-02-16 09:32:00,23.4,18.6,30.13,West,275,14.4,24.9,82,0.00,,OVC048,0.00,VWS V14.01,2013-02-16 14:32:00,
2013-02-16 09:33:00,23.5,18.8,30.13,NW,311,10.3,18.3,82,0.00,,OVC048,0.00,VWS V14.01,2013-02-16 14:33:00,
2013-02-16 09:34:00,23.5,18.3,30.13,NW,319,9.6,24.9,80,0.00,,,0.00,VWS V14.01,2013-02-16 14:34:00,
2013-02-16 09:35:00,23.5,18.8,30.13,West,268,5.2,24.9,82,0.00,,OVC048,0.00,VWS V14.01,2013-02-16 14:35:00,
2013-02-16 09:36:00,23.5,19.2,30.13,West,265,8.9,15.0,83,0.00,,OVC048,0.00,VWS V14.01,2013-02-16 14:36:00,
2013-02-16 09:37:00,23.5,18.3,30.13,West,262,13.3,21.1,80,0.00,,OVC048,0.00,VWS V14.01,2013-02-16 14:37:00,
2013-02-16 09:38:00,23.5,18.3,30.13,WNW,282,15.9,21.1,80,0.00,,OVC048,0.00,VWS V14.01,2013-02-16 14:38:00,
2013-02-16 09:39:00,23.5,18.3,30.13,WNW,298,12.5,23.0,80,0.00,,,0.00,VWS V14.01,2013-02-16 14:39:00,
2013-02-16 09:40:00,23.5,18.3,30.13,NW,320,9.6,23.0,80,0.00,,OVC048,0.00,VWS V14.01,2013-02-16 14:40:00,
2013-02-16 09:41:00,23.5,18.3,30.13,WNW,300,13.7,17.4,80,0.00,,OVC048,0.00,VWS V14.01,2013-02-16 14:41:00,
2013-02-16 09:42:00,23.5,18.3,30.13,NNW,331,21.0,35.2,80,0.00,,OVC048,0.00,VWS V14.01,2013-02-16 14:42:00,
2013-02-16 09:43:00,23.5,17.8,30.13,WNW,301,13.3,26.8,78,0.00,,OVC048,0.00,VWS V14.01,2013-02-16 14:43:00,
2013-02-16 09:44:00,23.7,18.4,30.13,NW,307,13.3,16.9,80,0.00,,,0.00,VWS V14.01,2013-02-16 14:44:00,
2013-02-16 09:45:00,23.7,18.4,30.13,WNW,288,14.4,18.3,80,0.00,,OVC048,0.00,VWS V14.01,2013-02-16 14:45:00,
2013-02-16 09:46:00,23.7,18.4,30.13,NW,314,9.6,18.3,80,0.00,,OVC048,0.00,VWS V14.01,2013-02-16 14:46:00,
2013-02-16 09:47:00,23.7,18.4,30.13,WNW,297,18.1,23.0,80,0.00,,OVC048,0.00,VWS V14.01,2013-02-16 14:47:00,
2013-02-16 09:48:00,23.7,17.9,30.13,NNW,346,10.3,23.0,78,0.00,,OVC048,0.00,VWS V14.01,2013-02-16 14:48:00,
2013-02-16 09:49:00,23.9,18.6,30.13,West,265,6.6,16.0,80,0.00,,,0.00,VWS V14.01,2013-02-16 14:49:00,
2013-02-16 09:50:00,23.9,18.6,30.13,West,266,13.7,17.4,80,0.00,,OVC048,0.00,VWS V14.01,2013-02-16 14:50:00,
2013-02-16 09:51:00,23.9,18.1,30.13,WNW,286,21.0,26.8,78,0.00,,OVC048,0.00,VWS V14.01,2013-02-16 14:51:00,
2013-02-16 09:52:00,23.7,17.4,30.13,West,281,13.3,26.8,76,0.00,,OVC048,0.00,VWS V14.01,2013-02-16 14:52:00,
2013-02-16 09:53:00,23.7,17.4,30.13,West,280,13.3,21.1,76,0.00,,OVC048,0.00,VWS V14.01,2013-02-16 14:53:00,
2013-02-16 09:54:00,23.9,18.1,30.13,West,270,14.4,18.3,78,0.00,,,0.00,VWS V14.01,2013-02-16 14:54:00,
2013-02-16 09:55:00,23.9,18.1,30.13,WNW,294,11.1,18.3,78,0.00,,OVC048,0.00,VWS V14.01,2013-02-16 14:55:00,
2013-02-16 09:56:00,24.1,18.8,30.13,NW,313,8.9,21.1,80,0.00,,OVC048,0.00,VWS V14.01,2013-02-16 14:56:00,
2013-02-16 09:57:00,24.1,18.3,30.13,WNW,291,9.6,16.9,78,0.00,,OVC048,0.00,VWS V14.01,2013-02-16 14:57:00,
2013-02-16 09:58:00,24.3,18.5,30.13,WNW,298,8.9,18.3,78,0.00,,OVC048,0.00,VWS V14.01,2013-02-16 14:58:00,
2013-02-16 09:59:00,24.3,18.0,30.13,West,279,14.4,22.1,76,0.00,,,0.00,VWS V14.01,2013-02-16 14:59:00,
2013-02-16 10:00:00,24.3,18.0,30.13,West,279,14.4,22.1,76,0.00,,OVC048,0.00,VWS V14.01,2013-02-16 15:00:00,
2013-02-16 10:01:00,24.1,17.8,30.13,WNW,301,14.4,24.0,76,0.00,,OVC048,0.00,VWS V14.01,2013-02-16 15:01:00,
2013-02-16 10:02:00,24.1,17.8,30.13,WNW,300,12.5,18.3,76,0.00,,OVC048,0.00,VWS V14.01,2013-02-16 15:02:00,
2013-02-16 10:03:00,23.9,17.6,30.13,West,280,18.1,23.0,76,0.00,,OVC048,0.00,VWS V14.01,2013-02-16 15:03:00,
2013-02-16 10:04:00,24.1,17.8,30.13,West,264,16.6,21.1,76,0.00,,,0.00,VWS V14.01,2013-02-16 15:04:00,
2013-02-16 10:05:00,24.1,17.8,30.13,West,264,16.6,21.1,76,0.00,,OVC048,0.00,VWS V14.01,2013-02-16 15:05:00,
2013-02-16 10:06:00,24.1,17.8,30.13,WSW,242,12.5,21.1,76,0.00,,OVC048,0.00,VWS V14.01,2013-02-16 15:06:00,
2013-02-16 10:07:00,24.3,18.0,30.13,WNW,290,21.0,26.8,76,0.00,,OVC048,0.00,VWS V14.01,2013-02-16 15:07:00,
2013-02-16 10:08:00,24.3,18.0,30.13,West,274,13.3,26.8,76,0.00,,OVC048,0.00,VWS V14.01,2013-02-16 15:08:00,
2013-02-16 10:09:00,24.4,18.1,30.13,NNW,332,10.3,16.9,76,0.00,,,0.00,VWS V14.01,2013-02-16 15:09:00,
2013-02-16 10:10:00,24.4,18.1,30.13,NNW,332,10.3,16.9,76,0.00,,OVC048,0.00,VWS V14.01,2013-02-16 15:10:00,
2013-02-16 10:11:00,24.4,18.1,30.13,WSW,257,10.3,13.2,76,0.00,,OVC048,0.00,VWS V14.01,2013-02-16 15:11:00,
2013-02-16 10:12:00,24.6,18.3,30.13,NW,318,14.4,18.3,76,0.00,,OVC048,0.00,VWS V14.01,2013-02-16 15:12:00,
2013-02-16 10:13:00,24.4,17.6,30.13,NW,314,16.6,26.8,75,0.00,,OVC048,0.00,VWS V14.01,2013-02-16 15:13:00,
2013-02-16 10:14:00,24.3,17.4,30.13,NW,322,13.3,22.1,75,0.00,,,0.00,VWS V14.01,2013-02-16 15:14:00,
2013-02-16 10:15:00,24.3,17.4,30.13,NNW,343,17.3,28.7,75,0.00,,OVC048,0.00,VWS V14.01,2013-02-16 15:15:00,
2013-02-16 10:16:00,24.3,17.4,30.13,NW,320,9.6,22.1,75,0.00,,OVC048,0.00,VWS V14.01,2013-02-16 15:16:00,
2013-02-16 10:17:00,24.3,17.4,30.13,West,279,14.4,18.3,75,0.00,,OVC048,0.00,VWS V14.01,2013-02-16 15:17:00,
2013-02-16 10:18:00,24.4,18.1,30.13,WNW,302,9.6,21.1,76,0.00,,OVC048,0.00,VWS V14.01,2013-02-16 15:18:00,
2013-02-16 10:19:00,24.6,18.3,30.13,NNW,342,9.6,18.3,76,0.00,,,0.00,VWS V14.01,2013-02-16 15:19:00,
2013-02-16 10:20:00,24.6,18.3,30.13,NW,306,14.4,18.3,76,0.00,,OVC048,0.00,VWS V14.01,2013-02-16 15:20:00,
2013-02-16 10:21:00,24.4,17.6,30.13,WNW,302,13.3,22.1,75,0.00,,OVC048,0.00,VWS V14.01,2013-02-16 15:21:00,
2013-02-16 10:22:00,24.6,17.8,30.13,WNW,298,10.3,16.9,75,0.00,,OVC048,0.00,VWS V14.01,2013-02-16 15:22:00,
2013-02-16 10:23:00,24.8,18.0,30.13,WNW,300,10.3,13.2,75,0.00,,OVC048,0.00,VWS V14.01,2013-02-16 15:23:00,
2013-02-16 10:24:00,25.0,18.1,30.13,WNW,292,9.6,16.0,75,0.00,,OVC048,0.00,VWS V14.01,2013-02-16 15:24:00,
2013-02-16 10:25:00,25.0,18.1,30.13,NW,321,12.5,17.4,75,0.00,,,0.00,VWS V14.01,2013-02-16 15:25:00,
2013-02-16 10:26:00,25.0,18.1,30.13,WNW,288,8.9,17.4,75,0.00,,OVC048,0.00,VWS V14.01,2013-02-16 15:26:00,
2013-02-16 10:27:00,25.2,18.3,30.13,NW,326,14.4,25.8,75,0.00,,OVC048,0.00,VWS V14.01,2013-02-16 15:27:00,
2013-02-16 10:28:00,25.3,18.5,30.13,NW,314,8.9,18.3,75,0.00,,OVC048,0.00,VWS V14.01,2013-02-16 15:28:00,
2013-02-16 10:29:00,25.2,17.8,30.13,NW,305,10.3,16.9,73,0.00,,OVC048,0.00,VWS V14.01,2013-02-16 15:29:00,
2013-02-16 10:30:00,25.2,18.3,30.13,North,353,8.9,16.0,75,0.00,,,0.00,VWS V14.01,2013-02-16 15:30:00,
2013-02-16 10:31:00,25.3,17.9,30.13,WNW,302,10.3,16.0,73,0.00,,OVC048,0.00,VWS V14.01,2013-02-16 15:31:00,
2013-02-16 10:32:00,25.3,17.9,30.13,NW,308,9.6,13.2,73,0.00,,OVC048,0.00,VWS V14.01,2013-02-16 15:32:00,
2013-02-16 10:33:00,25.3,18.5,30.13,West,274,14.4,18.3,75,0.00,,OVC048,0.00,VWS V14.01,2013-02-16 15:33:00,
2013-02-16 10:34:00,25.5,18.1,30.13,NNW,335,14.4,18.3,73,0.00,,OVC048,0.00,VWS V14.01,2013-02-16 15:34:00,
2013-02-16 10:35:00,25.3,17.9,30.13,West,281,13.7,17.4,73,0.00,,,0.00,VWS V14.01,2013-02-16 15:35:00,
2013-02-16 10:36:00,25.3,17.9,30.13,WNW,289,18.1,23.0,73,0.00,,OVC048,0.00,VWS V14.01,2013-02-16 15:36:00,
2013-02-16 10:37:00,25.3,17.9,30.13,WNW,290,9.6,23.0,73,0.00,,OVC048,0.00,VWS V14.01,2013-02-16 15:37:00,
2013-02-16 10:38:00,25.2,17.8,30.13,NW,304,11.8,16.9,73,0.00,,OVC048,0.00,VWS V14.01,2013-02-16 15:38:00,
2013-02-16 10:39:00,25.3,17.9,30.13,WNW,300,17.3,22.1,73,0.00,,OVC048,0.00,VWS V14.01,2013-02-16 15:39:00,
2013-02-16 10:40:00,25.0,17.0,30.13,WNW,289,13.3,18.3,71,0.00,,,0.00,VWS V14.01,2013-02-16 15:40:00,
2013-02-16 10:41:00,24.8,17.4,30.13,NW,306,16.6,27.7,73,0.00,,OVC048,0.00,VWS V14.01,2013-02-16 15:41:00,
2013-02-16 10:42:00,24.8,17.4,30.13,NNW,335,9.6,27.7,73,0.00,,OVC048,0.00,VWS V14.01,2013-02-16 15:42:00,
2013-02-16 10:43:00,25.0,17.6,30.13,NNW,339,13.3,16.9,73,0.00,,OVC048,0.00,VWS V14.01,2013-02-16 15:43:00,
2013-02-16 10:44:00,24.6,17.2,30.13,WNW,293,14.4,26.8,73,0.00,,OVC048,0.00,VWS V14.01,2013-02-16 15:44:00,
2013-02-16 10:45:00,24.8,17.4,30.13,West,280,14.4,26.8,73,0.00,,,0.00,VWS V14.01,2013-02-16 15:45:00,
2013-02-16 10:46:00,24.8,17.4,30.13,West,261,21.8,27.7,73,0.00,,OVC048,0.00,VWS V14.01,2013-02-16 15:46:00,
2013-02-16 10:47:00,25.0,17.6,30.13,North,349,12.5,27.7,73,0.00,,OVC048,0.00,VWS V14.01,2013-02-16 15:47:00,
2013-02-16 10:48:00,25.0,17.6,30.13,WNW,292,14.4,26.8,73,0.00,,OVC048,0.00,VWS V14.01,2013-02-16 15:48:00,
2013-02-16 10:49:00,25.2,17.2,30.13,WNW,303,16.6,26.8,71,0.00,,OVC048,0.00,VWS V14.01,2013-02-16 15:49:00,
2013-02-16 10:50:00,25.2,17.2,30.13,NW,326,17.3,25.8,71,0.00,,,0.00,VWS V14.01,2013-02-16 15:50:00,
2013-02-16 10:51:00,25.2,17.2,30.13,NW,311,15.9,25.8,71,0.00,,OVC048,0.00,VWS V14.01,2013-02-16 15:51:00,
2013-02-16 10:52:00,25.0,17.0,30.13,WNW,301,10.3,22.1,71,0.00,,OVC048,0.00,VWS V14.01,2013-02-16 15:52:00,
2013-02-16 10:53:00,25.0,17.0,30.13,WNW,294,12.5,18.3,71,0.00,,OVC048,0.00,VWS V14.01,2013-02-16 15:53:00,
2013-02-16 10:54:00,25.0,17.0,30.13,NNW,328,10.3,18.3,71,0.00,,OVC048,0.00,VWS V14.01,2013-02-16 15:54:00,
2013-02-16 10:55:00,25.2,17.8,30.13,North,1,6.6,13.2,73,0.00,,,0.00,VWS V14.01,2013-02-16 15:55:00,
2013-02-16 10:56:00,25.2,17.8,30.13,NW,326,9.6,13.2,73,0.00,,OVC048,0.00,VWS V14.01,2013-02-16 15:56:00,
2013-02-16 10:57:00,25.2,17.8,30.13,NW,307,5.9,13.2,73,0.00,,OVC048,0.00,VWS V14.01,2013-02-16 15:57:00,
2013-02-16 10:58:00,25.3,17.9,30.13,NW,320,13.3,21.1,73,0.00,,OVC048,0.00,VWS V14.01,2013-02-16 15:58:00,
2013-02-16 10:59:00,25.3,17.4,30.13,NW,320,11.8,21.1,71,0.00,,OVC048,0.00,VWS V14.01,2013-02-16 15:59:00,
2013-02-16 11:00:00,26.1,18.6,30.13,WNW,291,10.3,16.0,73,0.00,,,0.00,VWS V14.01,2013-02-16 16:00:00,
2013-02-16 11:01:00,26.1,18.6,30.13,WNW,298,12.5,16.0,73,0.00,,OVC048,0.00,VWS V14.01,2013-02-16 16:01:00,
2013-02-16 11:02:00,25.9,17.9,30.13,NW,314,13.3,18.3,71,0.00,,OVC048,0.00,VWS V14.01,2013-02-16 16:02:00,
2013-02-16 11:03:00,25.9,17.9,30.13,WNW,290,10.3,16.9,71,0.00,,OVC048,0.00,VWS V14.01,2013-02-16 16:03:00,
2013-02-16 11:04:00,25.9,17.9,30.13,WNW,299,21.0,26.8,71,0.00,,OVC048,0.00,VWS V14.01,2013-02-16 16:04:00,
2013-02-16 11:05:00,25.7,17.7,30.13,WNW,294,10.3,21.1,71,0.00,,,0.00,VWS V14.01,2013-02-16 16:05:00,
2013-02-16 11:06:00,25.7,17.7,30.13,WNW,294,10.3,21.1,71,0.00,,OVC048,0.00,VWS V14.01,2013-02-16 16:06:00,
2013-02-16 11:07:00,25.7,17.7,30.13,NW,316,14.4,21.1,71,0.00,,OVC048,0.00,VWS V14.01,2013-02-16 16:07:00,
2013-02-16 11:08:00,26.1,18.1,30.13,WNW,290,13.3,18.3,71,0.00,,OVC048,0.00,VWS V14.01,2013-02-16 16:08:00,
2013-02-16 11:09:00,26.1,18.1,30.13,NW,313,9.6,17.4,71,0.00,,OVC048,0.00,VWS V14.01,2013-02-16 16:09:00,
2013-02-16 11:10:00,25.7,17.7,30.13,WNW,288,18.1,23.0,71,0.00,,,0.00,VWS V14.01,2013-02-16 16:10:00,
2013-02-16 11:11:00,25.7,17.7,30.13,WNW,288,18.1,23.0,71,0.00,,OVC048,0.00,VWS V14.01,2013-02-16 16:11:00,
2013-02-16 11:12:00,25.7,17.7,30.13,NW,307,17.3,23.0,71,0.00,,OVC048,0.00,VWS V14.01,2013-02-16 16:12:00,
2013-02-16 11:13:00,25.7,17.7,30.13,NW,310,8.9,22.1,71,0.00,,OVC048,0.00,VWS V14.01,2013-02-16 16:13:00,
2013-02-16 11:14:00,25.7,17.7,30.13,NNW,330,5.9,15.0,71,0.00,,OVC048,0.00,VWS V14.01,2013-02-16 16:14:00,
2013-02-16 11:15:00,25.3,17.4,30.13,NW,305,18.8,26.8,71,0.00,,,0.00,VWS V14.01,2013-02-16 16:15:00,
2013-02-16 11:16:00,25.3,17.4,30.13,NW,305,18.8,26.8,71,0.00,,OVC048,0.00,VWS V14.01,2013-02-16 16:16:00,
2013-02-16 11:17:00,25.2,17.2,30.13,WNW,293,13.7,24.0,71,0.00,,OVC048,0.00,VWS V14.01,2013-02-16 16:17:00,
2013-02-16 11:18:00,25.2,17.2,30.13,WNW,299,18.1,23.0,71,0.00,,OVC048,0.00,VWS V14.01,2013-02-16 16:18:00,
2013-02-16 11:19:00,24.8,16.9,30.13,WNW,286,17.3,23.0,71,0.00,,OVC048,0.00,VWS V14.01,2013-02-16 16:19:00,
2013-02-16 11:20:00,25.0,17.0,30.13,NNW,334,12.5,16.0,71,0.00,,,0.00,VWS V14.01,2013-02-16 16:20:00,
2013-02-16 11:21:00,25.0,17.0,30.13,WNW,291,9.6,13.2,71,0.00,,OVC048,0.00,VWS V14.01,2013-02-16 16:21:00,
2013-02-16 11:22:00,25.2,17.2,30.13,NW,312,6.6,16.0,71,0.00,,OVC048,0.00,VWS V14.01,2013-02-16 16:22:00,
2013-02-16 11:23:00,25.3,17.9,30.13,WNW,293,11.1,18.3,73,0.00,,OVC048,0.00,VWS V14.01,2013-02-16 16:23:00,
2013-02-16 11:24:00,25.5,18.1,30.13,WNW,287,8.9,14.1,73,0.00,,OVC048,0.00,VWS V14.01,2013-02-16 16:24:00,
2013-02-16 11:25:00,25.7,17.7,30.13,NNW,330,13.3,16.9,71,0.00,,,0.00,VWS V14.01,2013-02-16 16:25:00,
2013-02-16 11:26:00,25.7,17.7,30.13,NNW,330,13.3,16.9,71,0.00,,OVC048,0.00,VWS V14.01,2013-02-16 16:26:00,
2013-02-16 11:27:00,25.7,17.7,30.13,NW,305,13.3,16.9,71,0.00,,OVC048,0.00,VWS V14.01,2013-02-16 16:27:00,
2013-02-16 11:28:00,25.7,17.7,30.13,WNW,294,8.9,16.9,71,0.00,,OVC048,0.00,VWS V14.01,2013-02-16 16:28:00,
2013-02-16 11:29:00,25.7,17.7,30.13,West,274,5.2,13.2,71,0.00,,OVC048,0.00,VWS V14.01,2013-02-16 16:29:00,
2013-02-16 11:30:00,26.1,18.1,30.13,WNW,300,17.3,22.1,71,0.00,,,0.00,VWS V14.01,2013-02-16 16:30:00,
2013-02-16 11:36:00,26.1,18.1,30.13,WNW,300,17.3,22.1,71,0.00,,,0.00,VWS V14.01,2013-02-16 16:36:00,
2013-02-16 18:28:00,26.1,13.2,30.10,WNW,293,10.3,13.2,58,0.00,,OVC048,0.00,VWS V14.01,2013-02-16 23:28:00,
2013-02-16 18:33:00,26.1,13.2,30.10,NW,313,9.6,16.9,58,0.00,,OVC048,0.00,VWS V14.01,2013-02-16 23:33:00,
2013-02-16 18:38:00,25.9,13.1,30.10,NNW,335,10.3,13.2,58,0.00,,,0.00,VWS V14.01,2013-02-16 23:38:00,
2013-02-16 18:43:00,25.9,13.1,30.10,WNW,299,10.3,16.0,58,0.00,,,0.00,VWS V14.01,2013-02-16 23:43:00,
2013-02-16 18:48:00,25.9,13.1,30.10,NW,305,10.3,13.2,58,0.00,,,0.00,VWS V14.01,2013-02-16 23:48:00,
2013-02-16 18:53:00,25.9,13.1,30.10,NNW,335,8.9,12.2,58,0.00,,,0.00,VWS V14.01,2013-02-16 23:53:00,
2013-02-16 18:58:00,25.7,12.9,30.10,West,266,6.6,13.2,58,0.00,,,0.00,VWS V14.01,2013-02-16 23:58:00,
2013-02-16 19:03:00,25.7,12.9,30.10,West,280,14.4,18.3,58,0.00,,,0.00,VWS V14.01,2013-02-17 00:03:00,
2013-02-16 19:08:00,25.7,12.9,30.10,NW,309,8.9,12.2,58,0.00,,,0.00,VWS V14.01,2013-02-17 00:08:00,
2013-02-16 19:14:00,25.5,12.7,30.13,WNW,283,10.3,16.9,58,0.00,,BKN055,0.00,VWS V14.01,2013-02-17 00:14:00,
2013-02-16 19:19:00,25.5,13.4,30.13,NW,308,10.3,13.2,60,0.00,,BKN055,0.00,VWS V14.01,2013-02-17 00:19:00,
2013-02-16 19:24:00,25.5,13.4,30.13,WNW,287,6.6,8.5,60,0.00,,BKN055,0.00,VWS V14.01,2013-02-17 00:24:00,
2013-02-16 19:29:00,25.5,13.4,30.13,NW,308,4.4,8.5,60,0.00,,BKN055,0.00,VWS V14.01,2013-02-17 00:29:00,
2013-02-16 19:34:00,25.3,13.2,30.13,WNW,292,5.2,11.3,60,0.00,,BKN055,0.00,VWS V14.01,2013-02-17 00:34:00,
2013-02-16 19:39:00,25.3,13.2,30.13,WNW,298,5.9,11.3,60,0.00,,BKN055,0.00,VWS V14.01,2013-02-17 00:39:00,
2013-02-16 19:44:00,25.3,13.2,30.13,NW,325,3.7,7.5,60,0.00,,BKN055,0.00,VWS V14.01,2013-02-17 00:44:00,
2013-02-16 19:49:00,25.3,13.9,30.13,West,277,8.9,11.3,61,0.00,,BKN055,0.00,VWS V14.01,2013-02-17 00:49:00,
2013-02-16 19:54:00,25.2,13.7,30.13,NW,308,4.4,10.3,61,0.00,,BKN055,0.00,VWS V14.01,2013-02-17 00:54:00,
2013-02-16 19:59:00,25.2,13.7,30.13,WNW,292,8.9,11.3,61,0.00,,BKN055,0.00,VWS V14.01,2013-02-17 00:59:00,
2013-02-16 20:04:00,25.2,13.7,30.13,WNW,288,5.9,8.5,61,0.00,,BKN055,0.00,VWS V14.01,2013-02-17 01:04:00,
2013-02-16 20:09:00,25.2,13.7,30.13,WNW,303,4.4,5.6,61,0.00,,BKN055,0.00,VWS V14.01,2013-02-17 01:09:00,
2013-02-16 20:14:00,25.2,13.7,30.13,WNW,290,0.0,5.6,61,0.00,,BKN055,0.00,VWS V14.01,2013-02-17 01:14:00,
2013-02-16 20:19:00,25.2,13.7,30.13,WNW,290,5.2,7.5,61,0.00,,BKN055,0.00,VWS V14.01,2013-02-17 01:19:00,
2013-02-16 20:25:00,25.2,13.7,30.13,WNW,303,5.9,7.5,61,0.00,,BKN055,0.00,VWS V14.01,2013-02-17 01:25:00,
2013-02-16 20:30:00,25.2,13.7,30.13,WNW,291,5.2,6.6,61,0.00,,BKN055,0.00,VWS V14.01,2013-02-17 01:30:00,
2013-02-16 20:35:00,25.2,13.7,30.13,NW,315,4.4,5.6,61,0.00,,BKN055,0.00,VWS V14.01,2013-02-17 01:35:00,
2013-02-16 20:40:00,25.2,13.7,30.13,WNW,292,4.4,5.6,61,0.00,,BKN055,0.00,VWS V14.01,2013-02-17 01:40:00,
2013-02-16 20:45:00,25.0,13.5,30.13,West,280,6.6,11.3,61,0.00,,BKN055,0.00,VWS V14.01,2013-02-17 01:45:00,
2013-02-16 20:50:00,25.0,14.1,30.13,WNW,287,0.0,0.0,63,0.00,,BKN055,0.00,VWS V14.01,2013-02-17 01:50:00,
2013-02-16 20:55:00,25.0,14.1,30.13,WNW,287,0.0,4.7,63,0.00,,BKN055,0.00,VWS V14.01,2013-02-17 01:55:00,
2013-02-16 21:00:00,25.0,14.1,30.13,WNW,287,0.0,0.0,63,0.00,,BKN055,0.00,VWS V14.01,2013-02-17 02:00:00,
2013-02-16 21:05:00,25.0,14.1,30.13,WNW,287,0.0,0.0,63,0.00,,BKN055,0.00,VWS V14.01,2013-02-17 02:05:00,
2013-02-16 21:10:00,24.8,14.0,30.13,WNW,287,0.0,0.0,63,0.00,,BKN055,0.00,VWS V14.01,2013-02-17 02:10:00,
2013-02-16 21:15:00,24.8,14.0,30.13,WNW,287,0.0,0.0,63,0.00,,BKN055,0.00,VWS V14.01,2013-02-17 02:15:00,
2013-02-16 21:20:00,24.6,14.4,30.13,WNW,287,0.0,0.0,65,0.00,,BKN055,0.00,VWS V14.01,2013-02-17 02:20:00,
2013-02-16 21:26:00,24.6,14.4,30.13,WNW,287,0.0,0.0,65,0.00,,BKN055,0.00,VWS V14.01,2013-02-17 02:26:00,
2013-02-16 21:31:00,24.4,14.2,30.13,WNW,287,0.0,0.0,65,0.00,,BKN055,0.00,VWS V14.01,2013-02-17 02:31:00,
2013-02-16 21:36:00,24.4,14.2,30.13,WNW,287,0.0,0.0,65,0.00,,,0.00,VWS V14.01,2013-02-17 02:36:00,
2013-02-16 21:41:00,24.3,14.1,30.13,WNW,286,0.0,0.0,65,0.00,,,0.00,VWS V14.01,2013-02-17 02:41:00,
2013-02-16 21:46:00,24.3,14.1,30.13,WNW,287,0.0,0.0,65,0.00,,,0.00,VWS V14.01,2013-02-17 02:46:00,
2013-02-16 21:51:00,24.1,13.9,30.13,WNW,287,0.0,0.0,65,0.00,,,0.00,VWS V14.01,2013-02-17 02:51:00,
2013-02-16 21:56:00,24.1,13.9,30.13,WNW,287,0.0,0.0,65,0.00,,,0.00,VWS V14.01,2013-02-17 02:56:00,
2013-02-16 22:01:00,24.1,13.9,30.13,WNW,287,0.0,0.0,65,0.00,,,0.00,VWS V14.01,2013-02-17 03:01:00,
2013-02-16 22:06:00,24.1,14.5,30.13,WNW,287,0.0,0.0,66,0.00,,,0.00,VWS V14.01,2013-02-17 03:06:00,
2013-02-16 22:11:00,24.1,14.5,30.10,WNW,286,0.0,0.0,66,0.00,,,0.00,VWS V14.01,2013-02-17 03:11:00,
2013-02-16 22:16:00,24.3,14.7,30.10,WNW,287,0.0,0.0,66,0.00,,,0.00,VWS V14.01,2013-02-17 03:16:00,
2013-02-16 22:22:00,24.3,15.2,30.10,WNW,287,0.0,0.0,68,0.00,,,0.00,VWS V14.01,2013-02-17 03:22:00,
2013-02-16 22:27:00,24.4,15.4,30.13,WNW,287,0.0,0.0,68,0.00,,,0.00,VWS V14.01,2013-02-17 03:27:00,
2013-02-16 22:32:00,24.4,15.4,30.13,West,281,0.0,0.0,68,0.00,,,0.00,VWS V14.01,2013-02-17 03:32:00,
2013-02-16 22:37:00,24.4,16.0,30.13,WSW,258,0.0,0.0,70,0.00,,,0.00,VWS V14.01,2013-02-17 03:37:00,
2013-02-16 22:42:00,24.4,15.4,30.13,WSW,257,0.0,0.0,68,0.00,,,0.00,VWS V14.01,2013-02-17 03:42:00,
2013-02-16 22:47:00,24.6,16.1,30.13,WSW,256,0.0,0.0,70,0.00,,,0.00,VWS V14.01,2013-02-17 03:47:00,
2013-02-16 22:52:00,24.6,16.1,30.13,WSW,252,0.0,0.0,70,0.00,,,0.00,VWS V14.01,2013-02-17 03:52:00,
2013-02-16 22:57:00,24.4,16.5,30.13,WSW,251,0.0,0.0,71,0.00,,,0.00,VWS V14.01,2013-02-17 03:57:00,
2013-02-16 23:02:00,24.4,16.5,30.13,WSW,251,0.0,0.0,71,0.00,,,0.00,VWS V14.01,2013-02-17 04:02:00,
2013-02-16 23:07:00,24.4,16.5,30.13,WSW,251,3.7,6.6,71,0.00,,,0.00,VWS V14.01,2013-02-17 04:07:00,
2013-02-16 23:12:00,24.4,16.5,30.13,WSW,237,4.4,7.5,71,0.00,,,0.00,VWS V14.01,2013-02-17 04:12:00,
2013-02-16 23:17:00,24.3,16.4,30.13,WSW,237,0.0,0.0,71,0.00,,,0.00,VWS V14.01,2013-02-17 04:17:00,
2013-02-16 23:22:00,24.3,16.4,30.13,WSW,237,0.0,0.0,71,0.00,,,0.00,VWS V14.01,2013-02-17 04:22:00,
2013-02-16 23:27:00,24.3,16.4,30.13,WSW,237,0.0,0.0,71,0.00,,,0.00,VWS V14.01,2013-02-17 04:27:00,
2013-02-16 23:33:00,24.3,16.4,30.13,WSW,237,0.0,5.6,71,0.00,,,0.00,VWS V14.01,2013-02-17 04:33:00,
2013-02-16 23:38:00,24.1,16.2,30.13,WSW,237,0.0,0.0,71,0.00,,,0.00,VWS V14.01,2013-02-17 04:38:00,
2013-02-16 23:43:00,24.1,16.2,30.13,WSW,237,0.0,0.0,71,0.00,,,0.00,VWS V14.01,2013-02-17 04:43:00,
2013-02-16 23:48:00,24.1,16.2,30.13,WSW,239,5.2,6.6,71,0.00,,,0.00,VWS V14.01,2013-02-17 04:48:00,
2013-02-16 23:53:00,24.1,16.2,30.13,West,270,5.9,8.5,71,0.00,,,0.00,VWS V14.01,2013-02-17 04:53:00,
2013-02-16 23:58:00,24.1,16.2,30.13,West,264,5.2,10.3,71,0.00,,,0.00,VWS V14.01,2013-02-17 04:58:00,